RH
69 73 78 81 82 80 73 71 66 55 56 65 71 87 99 97 91 85 77 65 55 53 51 47 46 48 49 46 42 42 45 48 54 59 59 62 69 68 64 59 53 51 53 54 53 52 54 56 58 58 57 59 68 75 73 72 69 69 70 67 65 67 65 53 41 35 28 22 19 18 19 20 18 16 15 14 14 14 17 18 19 18 16 17 17 15 18 22
59 71 77 80 83 84 76 72 70 57 57 63 70 91 100 92 84 82 82 73 61 58 55 52 49 49 50 48 44 44 45 46 54 60 63 74 80 75 71 64 57 54 53 55 54 51 54 56 59 61 59 59 66 76 78 76 73 74 73 68 67 69 65 52 40 36 30 22 18 18 18 19 18 16 16 16 17 19 21 21 20 20 18 18 19 17 19 23
51 68 78 81 84 87 79 73 72 62 57 63 72 88 94 88 79 72 78 77 66 61 58 56 53 51 50 48 47 47 44 44 52 60 67 80 85 80 77 71 63 57 54 56 54 51 53 55 59 61 60 60 63 71 78 78 76 75 72 69 69 67 65 53 39 35 33 24 19 18 18 18 17 16 16 16 19 23 23 21 19 20 18 19 20 18 20 24
47 61 70 74 81 86 82 74 74 67 56 62 72 79 86 92 84 72 73 72 65 62 61 59 56 54 51 48 49 46 43 44 48 58 69 76 81 82 80 74 66 60 59 61 57 52 52 53 56 60 61 62 62 66 72 77 78 75 73 73 68 63 64 53 38 35 34 28 19 18 19 18 17 16 16 16 18 23 20 16 14 15 15 18 20 19 20 24
45 56 61 67 77 81 82 75 75 74 61 60 72 77 82 89 87 81 75 67 63 61 60 60 58 56 53 49 48 45 45 46 44 54 69 72 74 75 74 72 68 63 63 64 62 56 55 53 54 59 62 65 65 65 67 72 76 77 74 73 67 62 64 54 40 36 35 30 22 19 19 18 18 16 16 15 15 17 15 12 12 11 12 14 17 18 20 23
41 53 58 65 74 79 82 79 77 80 68 59 70 81 85 85 86 87 81 69 65 64 61 60 58 57 54 49 46 44 46 46 41 47 61 68 70 68 67 68 67 65 60 58 59 58 60 58 57 59 64 68 69 67 66 69 75 79 77 73 68 65 65 56 43 38 36 33 25 19 19 18 17 16 15 15 13 12 12 11 11 11 11 13 15 17 18 20
39 49 56 62 70 75 81 82 80 81 75 63 65 83 90 88 90 90 85 76 70 70 66 60 56 56 54 48 46 46 45 44 39 41 49 57 61 60 62 65 66 63 55 53 54 57 61 61 62 62 65 70 69 66 65 69 74 78 78 73 70 68 66 58 46 40 37 34 29 19 17 17 17 16 16 15 13 11 11 11 11 12 12 13 16 17 16 16
37 44 51 60 69 75 80 85 84 81 81 71 64 77 88 92 97 93 86 81 75 73 68 61 55 53 53 48 47 49 48 45 41 39 41 44 48 50 56 60 60 56 51 53 54 55 59 60 63 64 67 70 67 67 64 67 73 76 77 74 71 71 67 59 48 42 37 34 33 24 17 17 17 16 15 14 13 12 11 11 11 12 12 14 16 17 17 16
36 41 46 56 64 71 78 84 87 84 84 80 68 70 79 89 100 97 87 81 79 78 71 66 59 52 51 48 47 49 46 44 42 41 40 39 39 40 42 44 45 47 51 59 58 56 57 59 62 64 66 66 66 70 66 67 74 77 79 76 72 71 68 62 50 42 38 35 35 30 20 16 17 16 15 13 13 13 12 11 11 12 12 13 16 17 18 18
37 39 44 52 60 64 69 76 84 84 87 87 76 69 71 84 98 100 93 84 78 79 76 71 64 53 50 49 47 47 44 44 43 42 42 40 37 35 34 33 34 40 49 58 61 59 56 56 60 61 62 63 64 68 68 70 77 80 81 77 74 73 69 64 53 43 40 38 37 35 25 16 16 16 15 13 13 13 12 11 11 11 12 13 15 17 18 17
37 37 40 47 56 61 63 70 77 80 86 88 81 72 66 79 99 101 99 94 85 84 83 75 67 57 51 49 46 43 42 44 45 44 45 42 39 37 35 34 33 35 43 52 59 60 57 55 56 60 62 61 63 66 67 69 76 81 80 78 77 74 70 66 57 46 43 43 40 37 30 19 15 16 15 13 12 12 12 11 10 11 12 13 14 16 18 17
38 36 38 42 50 59 65 69 74 79 85 85 82 74 65 79 99 97 94 97 94 93 90 81 73 64 57 53 46 41 42 44 46 46 47 45 43 41 38 37 36 36 41 49 55 57 57 54 52 59 63 61 64 67 66 66 72 78 80 81 79 75 72 69 61 49 44 45 42 39 36 27 17 15 15 13 12 12 12 11 10 11 12 13 14 16 17 16
39 35 36 38 44 57 67 70 74 80 85 85 80 74 72 81 93 94 94 96 96 96 95 86 78 72 64 56 46 42 43 43 45 47 48 47 45 44 42 40 39 39 42 49 54 54 55 55 54 59 61 62 64 65 64 63 66 72 78 81 81 80 75 70 64 54 46 45 43 39 39 35 21 14 16 14 12 11 11 12 11 11 12 13 14 15 15 16
39 34 33 36 41 52 63 68 74 78 84 87 81 75 77 82 90 97 98 98 96 96 96 90 82 79 70 58 50 47 46 45 46 47 47 49 47 46 46 43 42 44 48 52 54 53 54 55 59 63 62 64 63 61 64 64 65 70 75 78 81 84 79 71 65 57 48 44 41 38 40 37 23 15 17 15 13 12 11 11 11 11 12 13 15 14 14 14
36 32 32 34 38 49 59 65 72 76 80 86 84 79 77 80 91 100 97 97 98 97 96 91 87 85 75 65 57 53 51 49 48 47 47 49 49 48 47 46 45 48 53 56 54 55 55 56 64 69 69 70 66 62 68 69 68 70 72 75 80 83 80 73 65 55 47 44 41 39 40 38 26 16 17 16 14 13 11 11 11 11 11 13 14 14 13 13
33 29 30 31 35 46 56 62 68 74 78 84 86 82 77 79 91 99 96 96 98 98 98 97 94 86 78 72 65 59 56 51 48 49 49 48 49 49 48 47 47 51 57 58 57 56 56 58 65 70 71 71 68 65 68 70 70 70 70 73 76 80 80 75 67 55 46 43 41 39 39 39 29 18 16 16 14 13 13 13 11 11 11 12 13 14 13 13
33 29 28 30 33 42 53 59 66 75 78 83 87 83 79 81 88 95 97 96 97 98 98 99 95 87 85 77 65 61 56 49 49 50 49 48 48 48 49 49 49 53 59 61 60 58 59 60 62 66 67 67 69 70 72 73 74 75 73 72 74 78 80 77 70 58 49 44 40 38 39 38 32 23 19 16 15 16 16 14 12 12 11 12 12 13 13 13
34 30 28 28 30 37 49 56 64 75 79 82 89 86 82 84 89 95 98 97 98 99 99 100 98 97 94 77 60 57 53 49 51 50 50 50 48 48 49 52 52 54 60 63 62 61 61 62 63 66 64 66 72 75 77 77 74 75 74 72 73 75 76 77 72 61 51 45 40 37 39 39 35 29 23 17 16 18 18 16 15 14 13 12 12 11 11 12
35 32 30 29 29 32 45 54 61 75 81 82 89 88 83 86 90 95 99 99 99 97 95 97 96 91 77 62 56 55 53 53 54 53 52 51 51 50 51 56 59 58 61 63 63 62 61 63 67 67 65 70 76 76 77 74 69 74 78 75 72 72 72 73 73 66 54 46 40 35 36 39 38 33 27 19 15 18 20 20 18 16 14 14 13 11 10 10
34 31 30 31 30 30 40 51 58 74 84 83 87 91 89 90 93 97 99 99 98 91 85 84 84 76 63 60 62 60 61 64 61 58 55 52 51 52 54 58 63 65 65 63 62 60 60 64 65 62 65 70 74 73 71 68 66 74 83 78 71 69 69 70 73 69 58 49 41 35 37 40 39 35 29 21 17 17 19 20 19 17 16 15 14 12 9 9
32 31 29 30 33 32 37 47 57 71 84 85 86 92 92 89 92 99 99 99 99 92 88 88 85 80 71 68 66 63 69 73 68 62 58 56 52 53 56 57 62 67 67 65 64 62 62 64 61 62 67 69 71 71 67 65 68 77 84 81 76 72 70 72 74 70 61 53 45 40 40 41 39 35 31 25 20 18 17 17 18 16 16 16 14 12 9 8
31 29 28 29 32 35 37 44 54 66 83 92 89 88 88 83 88 98 98 97 98 95 95 95 91 87 80 78 74 68 70 74 74 68 60 58 56 55 55 57 62 64 64 66 70 70 66 62 60 65 70 71 72 72 69 70 76 85 90 87 80 72 71 75 75 71 64 56 50 47 44 42 40 34 32 30 22 17 16 15 15 15 16 17 14 11 9 9
31 28 28 29 30 35 40 43 52 63 80 93 89 85 87 84 88 96 96 95 98 98 98 98 94 90 88 88 84 75 69 68 70 71 63 57 58 56 54 57 62 63 62 64 67 70 68 63 60 64 69 72 74 73 73 74 79 89 92 87 82 75 75 77 75 73 68 60 53 49 46 44 42 35 33 32 25 18 16 15 14 14 14 14 12 11 10 9
32 29 28 29 28 33 39 45 55 64 73 85 87 85 88 88 89 94 95 95 98 99 99 97 94 93 91 86 82 78 70 63 61 65 64 60 57 57 58 59 61 64 64 61 61 64 63 61 59 62 68 73 75 74 72 72 77 86 85 83 85 82 80 78 74 72 71 65 56 49 47 44 41 38 33 31 27 21 17 16 15 14 13 13 12 11 10 9
34 32 30 31 30 30 39 48 55 62 67 76 84 86 89 91 89 92 96 97 99 98 98 98 96 96 94 87 86 83 73 68 66 62 62 61 57 57 60 61 60 65 64 60 61 61 60 60 61 64 67 71 75 74 71 70 76 84 83 81 83 83 83 79 72 71 73 72 62 53 51 45 43 43 35 29 28 24 19 17 16 14 13 13 12 11 10 9
35 35 33 34 32 30 40 48 50 59 66 70 79 86 90 93 91 92 95 98 100 98 98 98 96 96 95 93 91 88 82 80 75 66 62 63 59 56 60 61 61 64 63 62 63 61 59 59 63 67 68 71 75 74 71 69 77 87 84 81 83 83 85 80 70 68 72 75 68 60 54 48 47 46 37 29 27 25 21 18 17 15 14 13 13 12 11 10
36 36 35 37 35 32 37 44 48 57 62 65 76 85 90 93 95 95 96 100 99 97 98 99 97 96 95 93 89 89 90 84 79 74 66 65 64 61 62 61 60 61 62 65 69 65 60 63 66 67 68 71 71 68 66 66 77 86 83 83 84 83 86 80 69 66 68 69 69 64 57 51 46 43 39 31 25 24 22 19 18 16 15 13 12 12 11 10
36 36 36 37 36 31 31 41 49 53 57 63 73 84 90 94 97 97 98 100 95 94 98 97 96 96 96 94 89 88 86 77 77 79 72 69 68 66 67 63 60 61 61 65 71 66 62 67 68 65 66 66 61 58 58 61 71 75 74 80 82 81 82 74 67 66 65 66 67 64 60 55 47 44 44 34 25 23 21 19 18 16 16 14 12 12 10 10
36 35 36 36 35 31 30 41 48 50 58 66 75 85 90 94 98 98 100 100 92 92 96 96 97 97 96 95 92 90 87 82 80 78 75 75 71 68 70 66 64 66 63 62 67 63 61 64 66 66 66 61 59 59 60 65 69 66 67 72 78 82 78 71 68 66 65 67 64 61 61 57 49 46 45 36 29 25 20 18 19 17 16 15 13 12 11 10
41 37 35 36 36 35 36 39 43 50 60 67 77 86 91 96 98 98 100 97 92 93 96 97 98 97 96 97 96 91 88 88 85 81 80 76 72 71 71 70 71 73 67 64 68 65 61 62 63 66 66 61 62 65 66 70 69 68 70 73 80 87 82 79 77 72 73 70 58 58 62 59 52 46 42 38 31 24 18 17 18 17 17 16 14 13 12 11
44 41 39 39 37 38 39 36 37 48 58 69 81 90 96 99 98 99 98 92 91 96 97 98 98 97 96 96 97 93 88 88 87 84 82 76 74 75 73 71 72 74 73 70 71 69 63 62 61 59 59 59 62 65 68 70 69 71 77 79 85 92 91 90 86 82 83 70 54 57 63 61 55 45 41 40 32 23 18 17 17 16 16 16 15 14 13 13
40 41 42 41 39 40 37 30 33 45 54 68 86 95 99 100 98 99 97 92 94 97 97 97 96 96 96 94 94 92 90 91 87 81 79 75 74 74 71 68 64 67 73 71 68 66 61 60 56 52 51 53 58 66 70 72 72 75 78 80 88 94 97 96 88 84 79 62 51 55 59 60 54 42 40 42 34 25 19 17 16 16 16 15 15 15 14 13
36 38 40 41 42 39 33 29 37 48 54 68 89 99 100 100 99 96 95 97 96 92 92 93 91 91 94 96 97 92 90 93 88 82 80 76 75 74 72 70 63 60 64 64 64 63 60 57 52 49 47 46 50 61 69 72 73 75 74 77 84 90 95 94 86 81 73 59 53 53 53 54 49 43 41 40 37 28 19 17 16 16 16 16 15 15 14 13
36 37 38 41 40 37 36 34 39 50 60 75 93 100 99 99 97 93 93 97 95 90 91 93 93 94 95 96 97 92 92 94 88 83 82 80 78 75 70 67 63 60 59 60 61 59 59 57 50 45 45 45 48 56 62 66 72 76 76 78 81 82 84 83 78 73 66 58 55 54 53 50 45 44 42 39 39 31 21 17 17 16 16 16 16 15 14 14
43 42 40 43 41 40 43 38 38 51 65 82 97 100 99 96 93 92 92 93 94 94 96 95 95 98 99 97 95 92 91 92 88 85 83 78 73 69 64 60 57 57 58 59 59 56 55 54 49 45 46 50 54 57 58 63 72 76 78 81 80 75 74 73 70 64 59 58 55 53 52 47 42 43 41 40 41 35 26 19 17 17 16 16 17 15 14 14
50 48 45 47 45 44 44 38 41 54 67 86 100 99 98 94 88 89 87 84 88 93 98 99 98 99 100 99 97 94 91 87 85 86 83 77 73 68 63 59 54 52 52 53 56 56 56 57 53 51 54 56 58 58 57 62 69 73 77 75 71 72 72 70 68 62 59 61 57 49 46 43 41 41 41 40 39 37 32 23 18 17 17 17 17 15 15 14
57 54 51 50 48 47 43 36 43 59 72 90 101 96 94 92 87 86 82 79 83 88 92 97 97 96 95 98 99 96 93 90 88 87 83 78 74 66 60 57 54 52 50 49 50 51 54 61 59 57 62 60 58 59 60 62 65 70 72 66 66 77 77 73 74 70 66 67 59 50 45 41 41 42 41 39 36 35 35 28 21 16 17 19 17 15 15 15
63 60 58 52 48 48 42 38 47 63 80 95 100 94 94 94 90 86 84 84 85 87 91 94 92 88 85 88 91 90 88 89 87 85 81 76 68 59 54 54 53 54 52 49 50 51 57 66 66 63 64 62 60 62 65 66 64 65 67 64 68 76 74 73 77 74 70 67 60 53 47 42 42 41 39 38 37 36 34 31 26 18 15 17 16 16 16 16
73 69 64 52 49 49 42 43 52 66 86 99 97 94 97 98 91 87 88 87 84 86 90 90 86 84 81 79 81 84 84 83 81 80 76 72 65 57 51 51 53 54 51 47 50 55 60 69 72 67 66 66 65 66 68 68 65 64 67 67 66 66 66 69 69 66 65 63 60 54 47 44 43 42 40 38 37 37 33 32 30 23 16 15 15 16 17 17
79 74 63 48 49 49 43 49 60 72 91 95 87 91 99 98 90 86 88 85 81 83 85 82 81 81 81 80 80 82 82 81 82 80 74 68 64 60 53 50 52 54 53 51 53 57 59 65 71 70 68 67 66 66 67 69 68 67 67 68 66 64 66 68 64 62 61 61 59 54 48 46 44 41 39 36 36 37 34 32 32 27 19 15 15 16 16 17
76 74 61 47 48 50 48 58 68 79 91 88 86 95 99 94 90 87 89 87 81 79 78 77 77 76 77 79 79 81 82 84 84 82 77 68 62 59 52 49 52 56 57 58 58 60 60 62 68 71 68 64 62 63 67 69 70 71 71 70 69 69 72 74 71 66 61 60 60 54 48 45 42 38 36 34 35 37 36 35 34 31 24 17 15 15 15 17
71 70 60 47 49 52 54 64 71 81 90 86 88 96 95 92 91 85 88 92 86 81 81 80 80 78 77 75 74 77 81 82 80 77 73 66 59 55 52 51 54 56 57 59 61 62 65 68 71 72 69 66 64 66 69 67 66 69 69 67 70 73 73 73 72 68 65 63 60 55 49 42 40 40 37 35 37 38 38 37 35 33 28 21 17 16 16 17
67 64 56 46 45 52 59 66 71 81 89 85 86 93 92 92 91 86 90 94 89 85 86 84 82 81 80 77 76 79 79 80 79 72 67 66 63 60 56 55 58 61 61 61 61 61 64 70 73 72 71 70 69 69 70 68 66 66 64 63 67 70 70 72 72 71 70 64 58 56 50 41 41 46 43 38 38 38 37 37 36 33 30 26 22 18 17 18
65 61 57 50 46 51 57 63 72 84 90 89 91 94 93 90 87 89 94 92 87 84 82 80 78 77 77 76 75 74 73 76 78 72 66 65 64 61 59 58 60 62 60 56 56 57 62 68 71 74 77 78 76 72 68 66 64 62 64 66 67 69 72 74 72 73 72 63 57 56 50 41 42 46 45 40 38 36 35 34 34 34 31 29 25 21 19 19
67 64 60 55 52 54 51 47 60 80 91 95 96 95 95 92 86 86 87 86 81 76 74 75 75 74 74 76 75 72 71 72 72 70 68 65 63 62 60 59 59 59 58 56 56 59 65 68 66 69 75 76 73 68 63 62 63 62 64 67 69 71 72 71 73 76 71 63 61 58 49 44 43 41 40 41 39 37 36 34 34 34 32 30 27 23 21 19
63 65 65 63 60 56 45 37 53 76 89 94 94 93 96 94 89 86 84 84 82 76 74 76 77 77 78 78 79 78 75 72 69 66 64 62 61 59 55 56 58 61 62 61 60 60 65 66 59 57 59 59 62 63 60 61 63 62 62 64 66 70 70 73 78 75 66 65 66 57 50 49 46 41 41 43 43 42 40 38 36 33 31 29 26 24 22 20
55 58 63 67 69 62 49 50 68 81 86 87 86 89 93 93 92 93 90 88 83 77 77 77 75 77 77 76 77 77 74 71 66 60 57 56 57 55 53 55 59 62 63 63 60 58 60 59 53 52 54 56 61 64 61 60 60 59 61 62 63 66 68 70 70 62 63 70 65 55 54 54 48 47 48 45 45 45 43 41 38 35 33 29 26 24 23 21
55 52 50 51 61 63 58 65 79 84 86 88 83 82 87 88 90 91 91 89 84 78 78 78 75 72 69 66 67 71 72 69 64 58 54 54 56 53 51 53 57 60 60 60 58 54 54 54 52 54 59 60 62 62 60 59 59 61 62 61 61 64 64 62 58 54 62 66 57 53 58 54 49 54 53 48 46 44 41 40 38 37 37 33 28 25 24 22
52 51 48 39 42 52 57 66 78 85 92 95 90 85 83 82 81 80 81 83 80 77 75 75 73 68 63 60 62 67 68 63 59 54 49 48 50 48 48 50 54 56 53 53 54 51 51 53 53 55 57 58 60 61 60 61 61 62 62 60 59 60 58 55 53 55 61 59 52 55 57 52 52 55 53 50 50 45 41 40 38 38 38 36 33 28 25 24
42 46 48 41 39 44 51 63 76 88 96 96 91 87 81 76 74 73 74 74 71 70 69 67 65 61 58 56 55 56 53 45 44 43 40 43 45 44 44 44 47 53 53 52 52 50 50 53 53 53 56 57 59 60 61 61 61 61 60 57 54 54 54 52 52 57 60 56 54 58 57 52 53 54 52 52 51 47 44 41 39 39 39 38 36 32 28 26
34 33 33 37 47 49 52 64 74 82 91 91 86 84 81 78 74 71 72 70 64 58 57 57 57 56 55 54 49 47 45 41 41 40 38 40 40 40 41 41 45 53 58 59 57 55 56 57 53 55 59 57 57 61 62 59 59 59 55 51 50 50 51 51 51 54 54 52 56 60 54 49 50 52 52 52 51 50 47 41 39 39 38 38 37 35 32 29
32 30 23 27 46 53 55 66 76 78 81 81 78 78 78 77 76 75 74 72 65 59 55 54 55 54 55 52 46 45 47 48 49 48 42 40 39 39 41 42 45 48 53 59 62 62 62 61 58 61 61 58 58 61 58 58 62 57 45 42 46 48 48 48 47 48 50 51 54 52 46 46 48 49 50 53 54 53 48 42 40 38 38 38 38 36 35 32